Location: Gunung Kajang
(2.4167°N, 113.7167°E)
Time: 05:08:28
(UTC+00:00)

COSMO-SKYMED 1 - Pass Details

Date: 29 May 2022
Orbit: 621 x 623 km, 97.9° (Epoch: 24 June)

Event Time Altitude Azimuth Distance (km) Brightness Sun altitude
Rises 21:36:15 0° 153° (SSE) 2,900 6.1 -9.8°
Reaches altitude 10° 21:38:35 10° 144° (SE) 1,992 5.3 -9.3°
Maximum altitude 21:42:33 35° 78° (ENE) 1,000 4.5 -8.4°
Drops below altitude 10° 21:46:29 10° 12° (NNE) 1,984 5.7 -7.5°
Sets 21:48:48 0° 3° (N) 2,888 6.4 -6.9°
